KB6LA Weather Reports


Display with metric or nautical units.
time (UTC)temp
F
wind
direction
speed
MPH
gust
MPH
rain 1hr
in
rain 24hr
in
rain mn
in
humidity
%
barometer
mb
20260509180518 66 222 6.0 10.0 0.00 0.00 0.00 76 1013.1
20260509180011 67 198 6.0 11.0 0.00 0.00 0.00 77 1013.1
20260509174955 68 256 4.0 10.0 0.00 0.00 0.00 75 1013.1
20260509174448 67 260 3.0 7.0 0.00 0.00 0.00 75 1013.1
20260509173939 67 266 3.0 7.0 0.00 0.00 0.00 77 1012.8
20260509173433 66 249 2.0 8.0 0.00 0.00 0.00 77 1013.1
20260509172925 66 246 5.0 8.0 0.00 0.00 0.00 77 1012.8
20260509172417 66 6 1.0 9.0 0.00 0.00 0.00 79 1012.8
20260509171910 65 244 4.0 9.0 0.00 0.00 0.00 80 1013.1
20260509171402 65 249 3.0 10.0 0.00 0.00 0.00 80 1012.8
20260509170855 65 242 7.0 10.0 0.00 0.00 0.00 78 1012.8
20260509170346 65 241 1.0 4.0 0.00 0.00 0.00 78 1012.8
20260509165839 65 196 3.0 6.0 0.00 0.00 0.00 79 1012.8
20260509165331 65 256 3.0 6.0 0.00 0.00 0.00 78 1012.8
20260509164824 65 167 5.0 6.0 0.00 0.00 0.00 78 1012.4
20260509164316 65 259 1.0 3.0 0.00 0.00 0.00 79 1012.4
20260509163809 65 253 1.0 3.0 0.00 0.00 0.00 79 1012.8
20260509162754 64 125 1.0 3.0 0.00 0.00 0.00 80 1012.4
20260509162246 64 304 0.0 3.0 0.00 0.00 0.00 82 1012.8
20260509161738 64 207 1.0 3.0 0.00 0.00 0.00 83 1012.8
20260509161231 63 256 2.0 3.0 0.00 0.00 0.00 84 1012.8
20260509160723 63 229 2.0 3.0 0.00 0.00 0.00 85 1012.8
20260509160216 63 281 0.0 3.0 0.00 0.00 0.00 86 1012.8
20260509155707 62 238 1.0 3.0 0.00 0.00 0.00 86 1012.8
20260509155200 62 285 1.0 3.0 0.00 0.00 0.00 86 1012.8
20260509154653 62 253 1.0 3.0 0.00 0.00 0.00 86 1012.8
20260509154146 62 251 1.0 2.0 0.00 0.00 0.00 86 1012.8
20260509152622 62 263 0.0 4.0 0.00 0.00 0.00 88 1013.1
20260509151101 61 289 1.0 3.0 0.00 0.00 0.00 89 1012.8
20260509150552 61 272 1.0 4.0 0.00 0.00 0.00 89 1012.8
20260509150044 61 267 1.0 4.0 0.00 0.00 0.00 89 1012.8
20260509145537 61 229 3.0 4.0 0.00 0.00 0.00 89 1012.8
20260509145029 61 249 2.0 4.0 0.00 0.00 0.00 90 1012.8
20260509144522 60 230 2.0 4.0 0.00 0.00 0.00 90 1013.1
20260509144013 60 250 1.0 3.0 0.00 0.00 0.00 90 1012.8
20260509143506 60 223 2.0 3.0 0.00 0.00 0.00 90 1012.8
20260509142959 60 234 2.0 2.0 0.00 0.00 0.00 90 1012.8
20260509141943 60 261 1.0 3.0 0.00 0.00 0.00 90 1012.4
20260509140420 60 256 0.0 3.0 0.00 0.00 0.00 90 1012.8
20260509135913 60 253 1.0 3.0 0.00 0.00 0.00 90 1012.8
20260509135405 60 273 0.0 4.0 0.00 0.00 0.00 89 1012.4
20260509134858 60 254 2.0 4.0 0.00 0.00 0.00 89 1012.4
20260509134350 60 234 2.0 3.0 0.00 0.00 0.00 89 1012.4
20260509133843 61 243 3.0 3.0 0.00 0.00 0.00 88 1012.4
20260509133335 61 224 1.0 3.0 0.00 0.00 0.00 88 1012.4
20260509132828 61 195 1.0 3.0 0.00 0.00 0.00 87 1012.4
20260509132320 61 252 0.0 3.0 0.00 0.00 0.00 88 1012.4
20260509131812 61 235 1.0 3.0 0.00 0.00 0.00 88 1012.4
20260509130757 61 341 0.0 1.0 0.00 0.00 0.00 88 1012.4
20260509130249 61 345 0.0 1.0 0.00 0.00 0.00 88 1012.4
20260509125742 61 339 0.0 1.0 0.00 0.00 0.00 88 1012.1
20260509125234 60 342 1.0 1.0 0.00 0.00 0.00 89 1012.1
20260509124726 60 345 1.0 7.0 0.00 0.00 0.00 88 1012.1
20260509124219 60 2 1.0 7.0 0.00 0.00 0.00 89 1012.1
20260509123712 60 12 2.0 4.0 0.00 0.00 0.00 89 1012.4
20260509122656 60 351 0.0 4.0 0.00 0.00 0.00 89 1012.1
20260509122149 60 129 3.0 4.0 0.00 0.00 0.00 89 1012.1
20260509121641 60 5 0.0 4.0 0.00 0.00 0.00 89 1012.1
20260509120626 60 86 2.0 3.0 0.00 0.00 0.00 89 1012.1
20260509115610 60 261 0.0 4.0 0.00 0.00 0.00 89 1012.1
20260509115102 60 51 2.0 3.0 0.00 0.00 0.00 89 1012.1
20260509114555 60 150 2.0 2.0 0.00 0.00 0.00 89 1012.1
20260509114047 60 18 1.0 2.0 0.00 0.00 0.00 89 1012.1
20260509113540 60 46 2.0 2.0 0.00 0.00 0.00 89 1012.1
20260509113033 60 4 1.0 2.0 0.00 0.00 0.00 89 1012.1
20260509112525 60 355 0.0 2.0 0.00 0.00 0.00 89 1012.1
20260509112018 60 183 1.0 2.0 0.00 0.00 0.00 90 1012.1
20260509111002 60 355 1.0 2.0 0.00 0.00 0.00 90 1012.1
20260509110454 60 1 0.0 3.0 0.00 0.00 0.00 90 1012.1
20260509105947 60 6 0.0 3.0 0.00 0.00 0.00 90 1012.1
20260509105439 60 34 0.0 4.0 0.00 0.00 0.00 90 1012.4
20260509104932 60 103 3.0 4.0 0.00 0.00 0.00 90 1012.1
20260509104424 60 114 3.0 4.0 0.00 0.00 0.00 90 1012.4
20260509103917 60 248 1.0 4.0 0.00 0.00 0.00 90 1012.4
20260509102902 60 225 1.0 4.0 0.00 0.00 0.00 90 1012.4
20260509101846 60 286 0.0 3.0 0.00 0.00 0.00 91 1012.4
20260509101339 60 143 2.0 3.0 0.00 0.00 0.00 90 1012.4
20260509100830 59 147 0.0 3.0 0.00 0.00 0.00 91 1012.4
20260509100323 59 150 2.0 3.0 0.00 0.00 0.00 91 1012.4
20260509095309 59 186 0.0 4.0 0.00 0.00 0.00 91 1012.4
20260509094800 59 36 2.0 3.0 0.00 0.00 0.00 91 1012.4
20260509094252 59 193 2.0 4.0 0.00 0.00 0.00 91 1012.4
20260509093237 59 111 2.0 4.0 0.00 0.00 0.00 91 1012.8
20260509092223 59 29 1.0 3.0 0.00 0.00 0.00 91 1012.4
20260509091714 59 250 0.0 3.0 0.00 0.00 0.00 91 1012.8
20260509091207 59 218 1.0 3.0 0.00 0.00 0.00 91 1012.8
20260509090700 59 226 0.0 2.0 0.00 0.00 0.00 91 1012.8
20260509090151 59 230 0.0 2.0 0.00 0.00 0.00 91 1012.4
20260509085644 59 208 1.0 2.0 0.00 0.00 0.00 91 1012.8
20260509085137 59 153 2.0 2.0 0.00 0.00 0.00 91 1012.8
20260509084629 59 170 1.0 3.0 0.00 0.00 0.00 91 1012.8
20260509084122 59 146 1.0 3.0 0.00 0.00 0.00 91 1012.8
20260509083613 59 137 2.0 2.0 0.00 0.00 0.00 91 1012.8
20260509083107 59 62 2.0 3.0 0.00 0.00 0.00 91 1012.8
20260509082558 59 358 1.0 3.0 0.00 0.00 0.00 91 1012.8
20260509082051 59 96 1.0 3.0 0.00 0.00 0.00 91 1012.8
20260509081544 59 202 1.0 3.0 0.00 0.00 0.00 91 1013.1
20260509081036 59 152 2.0 3.0 0.00 0.00 0.00 91 1012.8
20260509080528 59 241 1.0 4.0 0.00 0.00 0.00 91 1013.1
20260509080020 59 235 0.0 4.0 0.00 0.00 0.00 91 1013.1
20260509075513 59 253 2.0 4.0 0.00 0.00 0.00 91 1013.1
20260509075005 59 267 1.0 4.0 0.00 0.00 0.00 91 1013.4
20260509074458 59 232 3.0 4.0 0.00 0.00 0.00 91 1013.4
20260509073951 59 256 1.0 4.0 0.00 0.00 0.00 91 1013.4
20260509073443 59 200 2.0 4.0 0.00 0.00 0.00 91 1013.1
20260509072935 59 241 3.0 4.0 0.00 0.00 0.00 91 1013.4
20260509072428 59 227 3.0 3.0 0.00 0.00 0.00 91 1013.1
20260509071920 59 237 2.0 2.0 0.00 0.00 0.00 91 1013.1
20260509070904 59 265 0.0 3.0 0.00 0.00 0.00 91 1013.4
20260509070357 59 248 0.0 3.0 0.00 0.00 0.00 91 1013.4
20260509065849 59 282 1.0 3.0 0.00 0.00 0.00 91 1013.4
20260509065342 59 295 1.0 2.0 0.00 0.00 0.00 91 1013.4
20260509064834 59 293 2.0 2.0 0.00 0.00 0.00 91 1013.4
20260509064327 59 282 0.0 1.0 0.00 0.00 0.00 91 1013.4
20260509063311 59 283 0.0 3.0 0.00 0.00 0.00 91 1013.4
20260509061242 59 176 0.0 3.0 0.00 0.00 0.00 91 1013.4
20260509060734 59 256 0.0 3.0 0.00 0.00 0.00 91 1013.4
20260509060226 59 259 0.0 3.0 0.00 0.00 0.00 91 1013.4
20260509055719 59 254 1.0 3.0 0.00 0.00 0.00 91 1013.4
20260509055211 59 259 0.0 2.0 0.00 0.00 0.00 91 1013.8
20260509054704 59 262 1.0 2.0 0.00 0.00 0.00 91 1013.4
20260509053648 59 261 0.0 3.0 0.00 0.00 0.00 91 1013.4
20260509053140 59 276 1.0 3.0 0.00 0.00 0.00 91 1013.4
20260509052633 59 271 0.0 2.0 0.00 0.00 0.00 91 1013.8
20260509052125 59 310 1.0 3.0 0.00 0.00 0.00 91 1013.8
20260509051617 59 282 2.0 3.0 0.00 0.00 0.00 91 1013.4
20260509051110 59 273 1.0 3.0 0.00 0.00 0.00 91 1013.4
20260509050602 59 266 3.0 3.0 0.00 0.00 0.00 91 1013.4
20260509045547 59 288 0.0 2.0 0.00 0.00 0.00 91 1013.4
20260509045040 59 272 1.0 3.0 0.00 0.00 0.00 91 1013.4
20260509044024 59 251 1.0 3.0 0.00 0.00 0.00 91 1013.4
20260509043517 59 243 2.0 3.0 0.00 0.00 0.00 91 1013.4
20260509043009 59 312 2.0 4.0 0.00 0.00 0.00 91 1013.4
20260509041954 58 294 0.0 2.0 0.00 0.00 0.00 91 1013.1
20260509041447 58 261 0.0 4.0 0.00 0.00 0.00 91 1013.1
20260509040939 58 243 1.0 6.0 0.00 0.00 0.00 91 1013.1
20260509035924 59 215 4.0 7.0 0.00 0.00 0.00 91 1013.1
20260509035417 59 214 4.0 7.0 0.00 0.00 0.00 91 1013.1
20260509034908 59 298 2.0 7.0 0.00 0.00 0.00 91 1013.4
20260509033853 59 210 4.0 7.0 0.00 0.00 0.00 90 1013.1
20260509033346 59 258 3.0 7.0 0.00 0.00 0.00 90 1013.1
20260509031823 59 217 3.0 8.0 0.00 0.00 0.00 90 1012.8
20260509031315 59 259 4.0 7.0 0.00 0.00 0.00 90 1012.8
20260509030807 59 257 6.0 7.0 0.00 0.00 0.00 90 1012.4
20260509030300 59 303 4.0 7.0 0.00 0.00 0.00 89 1012.4
20260509025753 59 246 4.0 8.0 0.00 0.00 0.00 89 1012.4
20260509025244 59 270 2.0 8.0 0.00 0.00 0.00 89 1012.4
20260509024230 59 219 6.0 9.0 0.00 0.00 0.00 88 1012.4
20260509023215 60 163 6.0 8.0 0.00 0.00 0.00 88 1012.4
20260509022159 60 274 4.0 8.0 0.00 0.00 0.00 87 1012.4
20260509021651 60 259 6.0 8.0 0.00 0.00 0.00 87 1012.4
20260509021144 60 267 4.0 8.0 0.00 0.00 0.00 87 1012.4
20260509020637 60 274 4.0 10.0 0.00 0.00 0.00 87 1012.8
20260509020128 60 260 5.0 10.0 0.00 0.00 0.00 87 1012.4
20260509015622 60 228 6.0 10.0 0.00 0.00 0.00 87 1012.4
20260509014606 60 274 1.0 9.0 0.00 0.00 0.00 87 1012.4
20260509014058 60 261 5.0 9.0 0.00 0.00 0.00 87 1012.4
20260509013551 60 261 6.0 9.0 0.00 0.00 0.00 86 1012.4
20260509013043 61 218 6.0 9.0 0.00 0.00 0.00 86 1012.4
20260509012535 61 238 6.0 11.0 0.00 0.00 0.00 86 1012.4
20260509012027 61 256 6.0 13.0 0.00 0.00 0.00 86 1012.4
20260509011520 61 243 10.0 14.0 0.00 0.00 0.00 85 1012.4
20260509011013 62 223 6.0 14.0 0.00 0.00 0.00 85 1012.4
20260509005958 61 212 8.0 13.0 0.00 0.00 0.00 85 1012.4
20260509005449 62 252 7.0 13.0 0.00 0.00 0.00 84 1012.4
20260509004943 62 206 8.0 13.0 0.00 0.00 0.00 85 1012.4
20260509004434 62 244 6.0 13.0 0.00 0.00 0.00 83 1012.4
20260509003926 63 255 7.0 13.0 0.00 0.00 0.00 82 1012.4
20260509003419 63 245 5.0 13.0 0.00 0.00 0.00 83 1012.4
20260509002912 63 262 10.0 13.0 0.00 0.00 0.00 83 1012.4
20260509002404 63 229 9.0 13.0 0.00 0.00 0.00 80 1012.4
20260509001349 64 246 7.0 13.0 0.00 0.00 0.00 81 1012.8
20260509000842 64 263 5.0 17.0 0.00 0.00 0.00 81 1012.4
20260508235826 64 215 7.0 15.0 0.00 0.00 0.00 80 1012.4
20260508235318 64 237 12.0 14.0 0.00 0.00 0.00 78 1012.4
20260508234810 65 211 6.0 14.0 0.00 0.00 0.00 80 1012.4
20260508234303 64 237 10.0 14.0 0.00 0.00 0.00 79 1012.4
20260508233755 65 266 8.0 14.0 0.00 0.00 0.00 79 1012.4
20260508233248 65 285 9.0 13.0 0.00 0.00 0.00 79 1012.4
20260508232740 65 229 8.0 14.0 0.00 0.00 0.00 79 1012.4
20260508232232 65 251 9.0 15.0 0.00 0.00 0.00 79 1012.8
20260508231724 65 236 9.0 15.0 0.00 0.00 0.00 78 1012.4
20260508231218 65 225 6.0 14.0 0.00 0.00 0.00 78 1012.8
20260508230709 65 281 8.0 14.0 0.00 0.00 0.00 78 1012.8
20260508230202 65 218 8.0 15.0 0.00 0.00 0.00 78 1012.8
20260508225654 65 223 10.0 15.0 0.00 0.00 0.00 78 1012.8
20260508225147 66 205 9.0 14.0 0.00 0.00 0.00 75 1012.8
20260508224640 65 249 9.0 16.0 0.00 0.00 0.00 78 1013.1
20260508224132 65 260 7.0 16.0 0.00 0.00 0.00 78 1013.1
20260508223625 66 273 6.0 15.0 0.00 0.00 0.00 77 1013.1
20260508223116 65 220 7.0 16.0 0.00 0.00 0.00 77 1013.1
20260508222101 66 246 9.0 14.0 0.00 0.00 0.00 77 1013.4
20260508221553 66 187 7.0 13.0 0.00 0.00 0.00 78 1013.1
20260508221046 66 255 8.0 13.0 0.00 0.00 0.00 77 1013.4
20260508220538 65 265 7.0 16.0 0.00 0.00 0.00 78 1013.4
20260508220031 65 248 13.0 16.0 0.00 0.00 0.00 76 1013.4
20260508215523 65 232 9.0 15.0 0.00 0.00 0.00 76 1013.4
20260508214508 66 266 6.0 14.0 0.00 0.00 0.00 75 1013.8
20260508213452 65 233 6.0 14.0 0.00 0.00 0.00 76 1013.8
20260508212945 66 253 8.0 14.0 0.00 0.00 0.00 74 1013.8
20260508211930 66 236 5.0 15.0 0.00 0.00 0.00 76 1013.8
20260508211422 66 256 7.0 14.0 0.00 0.00 0.00 75 1014.1
20260508210915 67 209 6.0 14.0 0.00 0.00 0.00 74 1014.1
20260508210407 67 238 6.0 13.0 0.00 0.00 0.00 74 1014.1
20260508205900 67 203 6.0 14.0 0.00 0.00 0.00 75 1014.1
20260508205352 66 193 6.0 14.0 0.00 0.00 0.00 75 1014.1
20260508203829 66 272 7.0 11.0 0.00 0.00 0.00 75 1014.1
20260508203321 66 219 7.0 13.0 0.00 0.00 0.00 76 1014.1
20260508202814 65 239 9.0 16.0 0.00 0.00 0.00 76 1014.5
20260508202307 66 239 12.0 16.0 0.00 0.00 0.00 75 1014.5
20260508201759 66 276 4.0 14.0 0.00 0.00 0.00 77 1014.5
20260508201251 67 243 5.0 13.0 0.00 0.00 0.00 74 1014.5
20260508200744 67 207 8.0 13.0 0.00 0.00 0.00 75 1014.5
20260508195728 67 250 8.0 14.0 0.00 0.00 0.00 75 1014.5
20260508194713 67 201 5.0 11.0 0.00 0.00 0.00 75 1014.5
20260508194205 66 228 5.0 13.0 0.00 0.00 0.00 77 1014.5
20260508193658 66 238 4.0 13.0 0.00 0.00 0.00 75 1014.8
20260508193150 66 207 7.0 11.0 0.00 0.00 0.00 75 1014.5
20260508192643 66 239 3.0 13.0 0.00 0.00 0.00 76 1014.8
20260508192135 66 252 5.0 13.0 0.00 0.00 0.00 75 1014.8
20260508191628 66 297 4.0 10.0 0.00 0.00 0.00 76 1014.8
20260508191119 66 184 7.0 9.0 0.00 0.00 0.00 76 1014.8
20260508190612 66 245 6.0 11.0 0.00 0.00 0.00 76 1014.8
20260508190104 65 218 6.0 11.0 0.00 0.00 0.00 77 1015.1
20260508185557 65 200 5.0 10.0 0.00 0.00 0.00 77 1015.1
20260508185049 66 212 2.0 9.0 0.00 0.00 0.00 77 1015.1
20260508184542 65 172 5.0 10.0 0.00 0.00 0.00 77 1015.1
20260508184034 65 231 7.0 10.0 0.00 0.00 0.00 77 1015.1
20260508183527 66 245 3.0 10.0 0.00 0.00 0.00 76 1015.1
20260508183019 65 242 2.0 9.0 0.00 0.00 0.00 76 1015.1
20260508182512 65 284 4.0 13.0 0.00 0.00 0.00 77 1015.1
20260508182003 65 214 4.0 13.0 0.00 0.00 0.00 78 1015.1